Tracking 17149 objects as of 22-May-2015
HD Live streaming from Space Station

COSMOS 965 DEB


COSMOS 965 DEB is no longer on orbit
COSMOS 965 DEB is classified as:


NORAD ID: 10797
Int'l Code: 1977-111M
Perigee: N/A
Apogee: N/A
Inclination: N/A
Period: N/A
Semi major axis: N/A
RCS: N/A
Launch date: December 8, 1977
Source: Commonwealth of Independent States (former USSR) (CIS)
Decay date: 1978-07-18

Note: This is SATELLITE DEBRIS
Your satellite tracking list
Your tracking list is empty





NASA's NSSDC Master Catalog

Two Line Element Set (TLE):
1 10797U 77111  M 78135.78718275  .00486430 +00000-0 +00000-0 0  9995
2 10797 074.1059 274.0662 0024430 302.3710 057.5090 15.52647400024206

Source of the keplerian elements: AFSPC

N2YO: 352